Location: Nitra
(0.0000°N, 18.0833°E)
Time: 04:18:36
(UTC+01:00)

CZ-4C R/B - Pass Details

Date: 25 September 2022
Orbit: 570 x 1430 km, 63.4° (Epoch: 30 November)

Event Time Altitude Azimuth Distance (km) Brightness Sun altitude
Rises 19:52:40 0° 354° (N) 4,343 5.9 -18.3°
Reaches altitude 10° 19:55:44 10° 2° (N) 3,441 5.3 -19.1°
Maximum altitude 20:03:39 39° 67° (ENE) 2,010 3.6 -21.1°
Enters shadow 20:06:19 33° 102° (ESE) 2,226 3.8 -21.8°
